User: anonymous   Login
Location: Marne
(34.0056°N, 117.9064°W)
Time: 12:43:18
(UTC+00:00)
Language:

CZ-2D R/B - Orbit

View from above orbital plane
View from above orbital plane
View from above satellite
View from above satellite

Ground track
Ground track

The orbit data is extracted from the following two-line orbital elements,

1 28738U 05024B   20094.66515634 +.00000324 +00000-0 +22495-4 0  9995
2 28738 097.3897 119.6914 0013645 083.6534 276.6251 15.11991102810101
Epoch (UTC): 03 April 2020 15:57:49
Eccentricity: 0.0013645
inclination: 97.3897°
perigee height: 521 km
apogee height: 539 km
right ascension of ascending node: 119.6914°
argument of perigee: 83.6534°
revolutions per day: 15.11991102
mean anomaly at epoch: 276.6251°
orbit number at epoch: 81010

The dashed part of the orbit path shows where the satellite is in the earth's shadow,  

DLR